Time,TemperatureF,DewpointF,PressureIn,WindDirection,WindDirectionDegrees,WindSpeedMPH,WindSpeedGustMPH,Humidity,HourlyPrecipIn,Conditions,Clouds,dailyrainin,SoftwareType,DateUTC
2013-05-27 00:01:00,63.5,52.0,30.23,SSE,149,1.0,1.0,66,0.00,,---,0.00,VWS V14.01,2013-05-27 04:01:00,
2013-05-27 00:06:00,63.5,52.0,30.23,SSE,149,1.0,1.0,66,0.00,,---,0.00,VWS V14.01,2013-05-27 04:06:00,
2013-05-27 00:11:00,63.3,51.8,30.23,SSE,149,0.0,1.0,66,0.00,,---,0.00,VWS V14.01,2013-05-27 04:11:00,
2013-05-27 00:16:00,63.2,51.7,30.23,SSE,149,0.0,0.0,66,0.00,,---,0.00,VWS V14.01,2013-05-27 04:16:00,
2013-05-27 00:21:00,62.9,51.8,30.23,SSE,149,1.0,1.0,67,0.00,,---,0.00,VWS V14.01,2013-05-27 04:21:00,
2013-05-27 00:26:00,62.5,52.2,30.23,SE,136,1.0,1.0,69,0.00,,---,0.00,VWS V14.01,2013-05-27 04:26:00,
2013-05-27 00:31:00,62.2,51.9,30.23,SE,131,1.0,2.0,69,0.00,,---,0.00,VWS V14.01,2013-05-27 04:31:00,
2013-05-27 00:36:00,62.0,52.1,30.23,SE,124,2.0,2.0,70,0.00,,---,0.00,VWS V14.01,2013-05-27 04:36:00,
2013-05-27 00:41:00,62.0,52.1,30.23,SE,139,2.0,2.0,70,0.00,,---,0.00,VWS V14.01,2013-05-27 04:41:00,
2013-05-27 00:46:00,61.8,52.3,30.23,SE,124,2.0,2.0,71,0.00,,---,0.00,VWS V14.01,2013-05-27 04:46:00,
2013-05-27 00:51:00,61.5,52.0,30.23,ESE,119,2.0,2.0,71,0.00,,---,0.00,VWS V14.01,2013-05-27 04:51:00,
2013-05-27 00:56:00,61.2,52.1,30.23,ESE,107,1.0,2.0,72,0.00,,---,0.00,VWS V14.01,2013-05-27 04:56:00,
2013-05-27 01:01:00,60.7,52.4,30.23,East,94,2.0,3.0,74,0.00,,---,0.00,VWS V14.01,2013-05-27 05:01:00,
2013-05-27 01:06:00,59.8,52.2,30.24,SE,128,2.0,3.0,76,0.00,,---,0.00,VWS V14.01,2013-05-27 05:06:00,
2013-05-27 01:11:00,59.1,52.3,30.23,East,85,2.0,3.0,78,0.00,,---,0.00,VWS V14.01,2013-05-27 05:11:00,
2013-05-27 01:16:00,58.9,52.1,30.23,ESE,111,4.0,4.0,78,0.00,,---,0.00,VWS V14.01,2013-05-27 05:16:00,
2013-05-27 01:21:00,58.9,51.7,30.23,SE,132,2.0,2.0,77,0.00,,---,0.00,VWS V14.01,2013-05-27 05:21:00,
2013-05-27 01:26:00,59.0,51.5,30.23,ESE,115,3.0,4.0,76,0.00,,---,0.00,VWS V14.01,2013-05-27 05:26:00,
2013-05-27 01:31:00,59.8,51.1,30.23,ESE,115,4.0,4.0,73,0.00,,---,0.00,VWS V14.01,2013-05-27 05:31:00,
2013-05-27 01:36:00,60.4,51.3,30.24,SE,132,2.0,4.0,72,0.00,,---,0.00,VWS V14.01,2013-05-27 05:36:00,
2013-05-27 01:41:00,60.8,51.3,30.23,ESE,103,3.0,4.0,71,0.00,,---,0.00,VWS V14.01,2013-05-27 05:41:00,
2013-05-27 01:46:00,60.9,51.1,30.23,SE,129,3.0,3.0,70,0.00,,---,0.00,VWS V14.01,2013-05-27 05:46:00,
2013-05-27 01:51:00,61.2,51.0,30.23,ESE,107,3.0,4.0,69,0.00,,---,0.00,VWS V14.01,2013-05-27 05:51:00,
2013-05-27 01:56:00,61.3,51.1,30.23,ESE,103,3.0,4.0,69,0.00,,---,0.00,VWS V14.01,2013-05-27 05:56:00,
2013-05-27 02:01:00,61.4,50.8,30.23,ESE,111,4.0,4.0,68,0.00,,---,0.00,VWS V14.01,2013-05-27 06:01:00,
2013-05-27 02:06:00,61.6,50.5,30.23,ESE,117,3.0,5.0,67,0.00,,---,0.00,VWS V14.01,2013-05-27 06:06:00,
2013-05-27 02:11:00,61.6,51.0,30.23,East,85,4.0,5.0,68,0.00,,---,0.00,VWS V14.01,2013-05-27 06:11:00,
2013-05-27 02:17:00,61.1,50.9,30.22,ESE,120,3.0,5.0,69,0.00,,---,0.00,VWS V14.01,2013-05-27 06:17:00,
2013-05-27 02:22:00,60.7,50.5,30.22,East,87,3.0,6.0,69,0.00,,---,0.00,VWS V14.01,2013-05-27 06:22:00,
2013-05-27 02:27:00,60.4,50.6,30.22,East,99,5.0,7.0,70,0.00,,---,0.00,VWS V14.01,2013-05-27 06:27:00,
2013-05-27 02:32:00,60.3,50.9,30.22,East,94,3.0,4.0,71,0.00,,---,0.00,VWS V14.01,2013-05-27 06:32:00,
2013-05-27 02:37:00,60.0,50.6,30.22,ENE,77,3.0,5.0,71,0.00,,---,0.00,VWS V14.01,2013-05-27 06:37:00,
2013-05-27 02:42:00,59.8,50.8,30.22,ESE,117,2.0,4.0,72,0.00,,---,0.00,VWS V14.01,2013-05-27 06:42:00,
2013-05-27 02:47:00,59.7,50.7,30.22,SE,136,3.0,4.0,72,0.00,,---,0.00,VWS V14.01,2013-05-27 06:47:00,
2013-05-27 02:52:00,59.7,50.7,30.21,SE,136,1.0,3.0,72,0.00,,---,0.00,VWS V14.01,2013-05-27 06:52:00,
2013-05-27 02:57:00,59.5,50.5,30.22,ESE,115,2.0,2.0,72,0.00,,---,0.00,VWS V14.01,2013-05-27 06:57:00,
2013-05-27 03:02:00,59.1,50.5,30.22,East,100,2.0,2.0,73,0.00,,---,0.00,VWS V14.01,2013-05-27 07:02:00,
2013-05-27 03:07:00,58.9,50.3,30.22,ESE,103,1.0,3.0,73,0.00,,---,0.00,VWS V14.01,2013-05-27 07:07:00,
2013-05-27 03:12:00,58.8,50.5,30.22,ENE,73,2.0,5.0,74,0.00,,---,0.00,VWS V14.01,2013-05-27 07:12:00,
2013-05-27 03:17:00,58.6,50.3,30.21,East,89,3.0,4.0,74,0.00,,---,0.00,VWS V14.01,2013-05-27 07:17:00,
2013-05-27 03:22:00,58.5,50.2,30.21,East,101,3.0,5.0,74,0.00,,---,0.00,VWS V14.01,2013-05-27 07:22:00,
2013-05-27 03:27:00,58.6,50.3,30.22,SE,134,4.0,6.0,74,0.00,,---,0.00,VWS V14.01,2013-05-27 07:27:00,
2013-05-27 03:32:00,59.0,50.4,30.22,ESE,120,5.0,6.0,73,0.00,,---,0.00,VWS V14.01,2013-05-27 07:32:00,
2013-05-27 03:37:00,59.5,50.5,30.21,SE,124,7.0,7.0,72,0.00,,---,0.00,VWS V14.01,2013-05-27 07:37:00,
2013-05-27 03:42:00,59.8,50.4,30.22,SE,125,7.0,7.0,71,0.00,,---,0.00,VWS V14.01,2013-05-27 07:42:00,
2013-05-27 03:47:00,59.9,50.5,30.21,ESE,120,7.0,9.0,71,0.00,,---,0.00,VWS V14.01,2013-05-27 07:47:00,
2013-05-27 03:52:00,59.8,50.4,30.22,SE,129,6.0,8.0,71,0.00,,---,0.00,VWS V14.01,2013-05-27 07:52:00,
2013-05-27 03:57:00,59.7,50.3,30.22,ESE,118,8.0,9.0,71,0.00,,---,0.00,VWS V14.01,2013-05-27 07:57:00,
2013-05-27 04:02:00,59.8,50.4,30.22,SE,125,5.0,7.0,71,0.00,,---,0.00,VWS V14.01,2013-05-27 08:02:00,
2013-05-27 04:07:00,59.5,50.5,30.22,ESE,120,5.0,7.0,72,0.00,,---,0.00,VWS V14.01,2013-05-27 08:07:00,
2013-05-27 04:12:00,59.2,50.2,30.22,ESE,117,5.0,8.0,72,0.00,,---,0.00,VWS V14.01,2013-05-27 08:12:00,
2013-05-27 04:17:00,59.0,50.4,30.22,ESE,111,2.0,7.0,73,0.00,,---,0.00,VWS V14.01,2013-05-27 08:17:00,
2013-05-27 04:22:00,58.7,50.5,30.22,ESE,115,5.0,6.0,74,0.00,,---,0.00,VWS V14.01,2013-05-27 08:22:00,
2013-05-27 04:27:00,58.6,50.3,30.22,SE,135,4.0,6.0,74,0.00,,---,0.00,VWS V14.01,2013-05-27 08:27:00,
2013-05-27 04:32:00,58.6,50.7,30.22,ESE,111,4.0,6.0,75,0.00,,---,0.00,VWS V14.01,2013-05-27 08:32:00,
2013-05-27 04:37:00,58.7,50.8,30.22,SE,124,3.0,6.0,75,0.00,,---,0.00,VWS V14.01,2013-05-27 08:37:00,
2013-05-27 04:42:00,58.6,51.1,30.22,ESE,117,2.0,5.0,76,0.00,,---,0.00,VWS V14.01,2013-05-27 08:42:00,
2013-05-27 04:47:00,58.5,51.0,30.22,ESE,115,3.0,4.0,76,0.00,,---,0.00,VWS V14.01,2013-05-27 08:47:00,
2013-05-27 04:52:00,58.4,51.2,30.22,SE,138,3.0,4.0,77,0.00,,---,0.00,VWS V14.01,2013-05-27 08:52:00,
2013-05-27 04:57:00,58.2,51.4,30.22,ESE,104,3.0,4.0,78,0.00,,---,0.00,VWS V14.01,2013-05-27 08:57:00,
2013-05-27 05:02:00,58.0,51.5,30.23,East,82,3.0,5.0,79,0.00,,---,0.00,VWS V14.01,2013-05-27 09:02:00,
2013-05-27 05:07:00,57.9,51.8,30.23,ESE,109,2.0,4.0,80,0.00,,---,0.00,VWS V14.01,2013-05-27 09:07:00,
2013-05-27 05:12:00,57.7,51.6,30.23,SE,127,0.0,1.0,80,0.00,,---,0.00,VWS V14.01,2013-05-27 09:12:00,
2013-05-27 05:17:00,57.4,51.6,30.23,West,270,1.0,1.0,81,0.00,,---,0.00,VWS V14.01,2013-05-27 09:17:00,
2013-05-27 05:22:00,57.0,51.6,30.23,WSW,252,0.0,0.0,82,0.00,,---,0.00,VWS V14.01,2013-05-27 09:22:00,
2013-05-27 05:27:00,56.6,51.5,30.23,WSW,252,0.0,1.0,83,0.00,,---,0.00,VWS V14.01,2013-05-27 09:27:00,
2013-05-27 05:32:00,56.3,51.2,30.23,WSW,252,0.0,1.0,83,0.00,,---,0.00,VWS V14.01,2013-05-27 09:32:00,
2013-05-27 05:37:00,56.1,51.0,30.23,WSW,252,0.0,0.0,83,0.00,,---,0.00,VWS V14.01,2013-05-27 09:37:00,
2013-05-27 05:42:00,56.1,51.0,30.24,WSW,251,0.0,0.0,83,0.00,,---,0.00,VWS V14.01,2013-05-27 09:42:00,
2013-05-27 05:47:00,56.1,51.0,30.24,WSW,252,0.0,0.0,83,0.00,,---,0.00,VWS V14.01,2013-05-27 09:47:00,
2013-05-27 05:52:00,55.9,51.1,30.24,WSW,252,0.0,0.0,84,0.00,,---,0.00,VWS V14.01,2013-05-27 09:52:00,
2013-05-27 05:57:00,55.9,51.1,30.24,WSW,252,0.0,0.0,84,0.00,,---,0.00,VWS V14.01,2013-05-27 09:57:00,
2013-05-27 06:02:00,56.2,51.4,30.24,SSE,152,0.0,0.0,84,0.00,,---,0.00,VWS V14.01,2013-05-27 10:02:00,
2013-05-27 06:07:00,56.6,51.5,30.24,SE,124,0.0,0.0,83,0.00,,---,0.00,VWS V14.01,2013-05-27 10:07:00,
2013-05-27 06:12:00,56.8,51.7,30.24,ESE,122,0.0,0.0,83,0.00,,---,0.00,VWS V14.01,2013-05-27 10:12:00,
2013-05-27 06:17:00,57.0,51.9,30.25,SE,130,0.0,1.0,83,0.00,,---,0.00,VWS V14.01,2013-05-27 10:17:00,
2013-05-27 06:22:00,56.9,51.8,30.25,ESE,121,0.0,1.0,83,0.00,,---,0.00,VWS V14.01,2013-05-27 10:22:00,
2013-05-27 06:27:00,57.0,52.2,30.25,ESE,115,0.0,1.0,84,0.00,,---,0.00,VWS V14.01,2013-05-27 10:27:00,
2013-05-27 06:32:00,57.1,52.3,30.25,ESE,116,0.0,0.0,84,0.00,,---,0.00,VWS V14.01,2013-05-27 10:32:00,
2013-05-27 06:37:00,57.2,52.4,30.25,ESE,111,0.0,0.0,84,0.00,,---,0.00,VWS V14.01,2013-05-27 10:37:00,
2013-05-27 06:42:00,57.4,52.6,30.25,ESE,111,0.0,1.0,84,0.00,,---,0.00,VWS V14.01,2013-05-27 10:42:00,
2013-05-27 06:47:00,58.0,53.2,30.25,ESE,105,0.0,1.0,84,0.00,,---,0.00,VWS V14.01,2013-05-27 10:47:00,
2013-05-27 06:52:00,58.6,53.5,30.26,ESE,114,0.0,1.0,83,0.00,,---,0.00,VWS V14.01,2013-05-27 10:52:00,
2013-05-27 06:57:00,59.1,53.6,30.26,ESE,107,0.0,1.0,82,0.00,,---,0.00,VWS V14.01,2013-05-27 10:57:00,
2013-05-27 07:02:00,59.5,54.0,30.26,ESE,115,0.0,1.0,82,0.00,,---,0.00,VWS V14.01,2013-05-27 11:02:00,
2013-05-27 07:07:00,59.9,54.1,30.26,ESE,115,0.0,1.0,81,0.00,,---,0.00,VWS V14.01,2013-05-27 11:07:00,
2013-05-27 07:12:00,60.4,54.2,30.27,ESE,115,0.0,0.0,80,0.00,,---,0.00,VWS V14.01,2013-05-27 11:12:00,
2013-05-27 07:17:00,60.7,54.5,30.27,SE,139,0.0,0.0,80,0.00,,---,0.00,VWS V14.01,2013-05-27 11:17:00,
2013-05-27 07:22:00,61.1,54.5,30.27,SE,138,0.0,1.0,79,0.00,,---,0.00,VWS V14.01,2013-05-27 11:22:00,
2013-05-27 07:28:00,61.6,55.0,30.27,SSE,149,0.0,1.0,79,0.00,,---,0.00,VWS V14.01,2013-05-27 11:28:00,
2013-05-27 07:33:00,61.9,55.0,30.27,SSE,148,0.0,0.0,78,0.00,,---,0.00,VWS V14.01,2013-05-27 11:33:00,
2013-05-27 07:38:00,62.3,55.4,30.27,SSE,153,0.0,1.0,78,0.00,,---,0.00,VWS V14.01,2013-05-27 11:38:00,
2013-05-27 07:43:00,62.6,55.3,30.27,SE,141,0.0,1.0,77,0.00,,---,0.00,VWS V14.01,2013-05-27 11:43:00,
2013-05-27 07:48:00,63.1,55.8,30.27,SE,140,0.0,0.0,77,0.00,,---,0.00,VWS V14.01,2013-05-27 11:48:00,
2013-05-27 07:53:00,63.9,56.2,30.28,SE,141,0.0,1.0,76,0.00,,---,0.00,VWS V14.01,2013-05-27 11:53:00,
2013-05-27 07:58:00,64.4,56.3,30.28,South,174,0.0,1.0,75,0.00,,---,0.00,VWS V14.01,2013-05-27 11:58:00,
2013-05-27 08:03:00,64.3,56.2,30.28,South,177,0.0,1.0,75,0.00,,---,0.00,VWS V14.01,2013-05-27 12:03:00,
2013-05-27 08:08:00,64.5,56.0,30.28,South,170,1.0,1.0,74,0.00,,---,0.00,VWS V14.01,2013-05-27 12:08:00,
2013-05-27 08:13:00,64.8,56.3,30.28,WSW,242,0.0,1.0,74,0.00,,---,0.00,VWS V14.01,2013-05-27 12:13:00,
2013-05-27 08:18:00,65.1,57.0,30.28,SE,143,0.0,1.0,75,0.00,,---,0.00,VWS V14.01,2013-05-27 12:18:00,
2013-05-27 08:23:00,65.2,57.1,30.28,SSW,194,1.0,2.0,75,0.00,,---,0.00,VWS V14.01,2013-05-27 12:23:00,
2013-05-27 08:28:00,65.5,57.7,30.28,SSW,193,1.0,1.0,76,0.00,,---,0.00,VWS V14.01,2013-05-27 12:28:00,
2013-05-27 08:33:00,65.8,57.7,30.28,WSW,246,3.0,3.0,75,0.00,,---,0.00,VWS V14.01,2013-05-27 12:33:00,
2013-05-27 08:38:00,65.6,57.5,30.28,SW,222,4.0,4.0,75,0.00,,---,0.00,VWS V14.01,2013-05-27 12:38:00,
2013-05-27 08:43:00,65.8,58.0,30.28,South,189,1.0,2.0,76,0.00,,---,0.00,VWS V14.01,2013-05-27 12:43:00,
2013-05-27 08:48:00,66.2,58.0,30.28,SSW,204,1.0,3.0,75,0.00,,---,0.00,VWS V14.01,2013-05-27 12:48:00,
2013-05-27 08:53:00,66.6,58.4,30.28,SE,139,4.0,4.0,75,0.00,,---,0.00,VWS V14.01,2013-05-27 12:53:00,
2013-05-27 08:58:00,66.7,58.2,30.28,SSE,160,2.0,3.0,74,0.00,,---,0.00,VWS V14.01,2013-05-27 12:58:00,
2013-05-27 09:03:00,66.9,58.3,30.28,South,173,0.0,3.0,74,0.00,,---,0.00,VWS V14.01,2013-05-27 13:03:00,
2013-05-27 09:08:00,67.1,58.5,30.28,SE,144,3.0,3.0,74,0.00,,---,0.00,VWS V14.01,2013-05-27 13:08:00,
2013-05-27 09:13:00,67.7,59.1,30.28,SSE,153,2.0,5.0,74,0.00,,---,0.00,VWS V14.01,2013-05-27 13:13:00,
2013-05-27 09:18:00,68.2,59.2,30.28,SSE,147,2.0,3.0,73,0.00,,---,0.00,VWS V14.01,2013-05-27 13:18:00,
2013-05-27 09:23:00,68.6,58.8,30.28,SSW,197,2.0,6.0,71,0.00,,---,0.00,VWS V14.01,2013-05-27 13:23:00,
2013-05-27 09:28:00,69.0,59.6,30.28,SW,222,1.0,3.0,72,0.00,,---,0.00,VWS V14.01,2013-05-27 13:28:00,
2013-05-27 09:33:00,69.5,59.3,30.28,SSE,152,3.0,3.0,70,0.00,,---,0.00,VWS V14.01,2013-05-27 13:33:00,
2013-05-27 09:38:00,70.0,60.2,30.28,SSW,195,2.0,3.0,71,0.00,,---,0.00,VWS V14.01,2013-05-27 13:38:00,
2013-05-27 09:43:00,70.1,58.7,30.28,WSW,240,2.0,6.0,67,0.00,,---,0.00,VWS V14.01,2013-05-27 13:43:00,
2013-05-27 09:48:00,70.1,59.1,30.28,SE,130,0.0,5.0,68,0.00,,---,0.00,VWS V14.01,2013-05-27 13:48:00,
2013-05-27 09:53:00,70.6,58.3,30.28,ESE,117,3.0,6.0,65,0.00,,---,0.00,VWS V14.01,2013-05-27 13:53:00,
2013-05-27 09:58:00,70.5,58.2,30.27,SE,145,3.0,6.0,65,0.00,,---,0.00,VWS V14.01,2013-05-27 13:58:00,
2013-05-27 10:03:00,70.5,58.2,30.27,West,260,2.0,5.0,65,0.00,,---,0.00,VWS V14.01,2013-05-27 14:03:00,
2013-05-27 10:08:00,70.9,57.7,30.27,South,169,4.0,6.0,63,0.00,,---,0.00,VWS V14.01,2013-05-27 14:08:00,
2013-05-27 10:13:00,71.3,58.5,30.27,SSE,166,2.0,3.0,64,0.00,,---,0.00,VWS V14.01,2013-05-27 14:13:00,
2013-05-27 10:18:00,71.9,58.6,30.27,South,172,4.0,5.0,63,0.00,,---,0.00,VWS V14.01,2013-05-27 14:18:00,
2013-05-27 10:23:00,72.3,58.6,30.27,SE,142,4.0,7.0,62,0.00,,---,0.00,VWS V14.01,2013-05-27 14:23:00,
2013-05-27 10:28:00,72.5,57.4,30.27,South,184,3.0,8.0,59,0.00,,---,0.00,VWS V14.01,2013-05-27 14:28:00,
2013-05-27 10:33:00,72.5,57.4,30.27,SE,136,2.0,8.0,59,0.00,,---,0.00,VWS V14.01,2013-05-27 14:33:00,
2013-05-27 10:38:00,72.4,58.2,30.27,SSE,160,5.0,7.0,61,0.00,,---,0.00,VWS V14.01,2013-05-27 14:38:00,
2013-05-27 10:43:00,72.6,57.5,30.27,SW,222,2.0,8.0,59,0.00,,---,0.00,VWS V14.01,2013-05-27 14:43:00,
2013-05-27 10:48:00,72.8,57.7,30.27,SW,226,5.0,9.0,59,0.00,,---,0.00,VWS V14.01,2013-05-27 14:48:00,
2013-05-27 10:53:00,73.1,57.0,30.27,SSW,207,2.0,8.0,57,0.00,,---,0.00,VWS V14.01,2013-05-27 14:53:00,
2013-05-27 10:58:00,73.3,58.1,30.26,South,188,0.0,6.0,59,0.00,,---,0.00,VWS V14.01,2013-05-27 14:58:00,
2013-05-27 11:03:00,74.0,56.8,30.26,SSE,147,3.0,8.0,55,0.00,,---,0.00,VWS V14.01,2013-05-27 15:03:00,
2013-05-27 11:08:00,74.3,56.6,30.26,SSE,153,4.0,9.0,54,0.00,,---,0.00,VWS V14.01,2013-05-27 15:08:00,
2013-05-27 11:13:00,74.1,57.4,30.26,South,173,3.0,8.0,56,0.00,,---,0.00,VWS V14.01,2013-05-27 15:13:00,
2013-05-27 11:18:00,74.2,56.0,30.26,SSW,193,8.0,9.0,53,0.00,,---,0.00,VWS V14.01,2013-05-27 15:18:00,
2013-05-27 11:23:00,74.3,56.1,30.26,SSE,158,2.0,7.0,53,0.00,,---,0.00,VWS V14.01,2013-05-27 15:23:00,
2013-05-27 11:28:00,74.8,56.5,30.26,SSE,155,1.0,9.0,53,0.00,,---,0.00,VWS V14.01,2013-05-27 15:28:00,
2013-05-27 11:33:00,74.8,55.5,30.26,SSW,197,6.0,10.0,51,0.00,,---,0.00,VWS V14.01,2013-05-27 15:33:00,
2013-05-27 11:39:00,75.1,54.7,30.26,South,171,3.0,10.0,49,0.00,,---,0.00,VWS V14.01,2013-05-27 15:39:00,
2013-05-27 11:44:00,75.1,54.1,30.26,SSE,149,5.0,8.0,48,0.00,,---,0.00,VWS V14.01,2013-05-27 15:44:00,
2013-05-27 11:49:00,75.1,54.1,30.26,SSW,207,2.0,10.0,48,0.00,,---,0.00,VWS V14.01,2013-05-27 15:49:00,
2013-05-27 11:54:00,75.1,54.7,30.25,SSE,156,3.0,7.0,49,0.00,,---,0.00,VWS V14.01,2013-05-27 15:54:00,
2013-05-27 11:59:00,75.7,54.1,30.25,SW,235,4.0,8.0,47,0.00,,---,0.00,VWS V14.01,2013-05-27 15:59:00,
2013-05-27 12:04:00,75.8,53.0,30.25,WSW,238,7.0,12.0,45,0.00,,---,0.00,VWS V14.01,2013-05-27 16:04:00,
2013-05-27 12:09:00,76.0,55.5,30.25,SSW,212,5.0,8.0,49,0.00,,---,0.00,VWS V14.01,2013-05-27 16:09:00,
2013-05-27 12:14:00,76.1,54.4,30.25,SSW,205,5.0,8.0,47,0.00,,---,0.00,VWS V14.01,2013-05-27 16:14:00,
2013-05-27 12:19:00,76.0,53.8,30.25,South,179,4.0,9.0,46,0.00,,---,0.00,VWS V14.01,2013-05-27 16:19:00,
2013-05-27 12:24:00,76.3,54.0,30.25,West,271,3.0,8.0,46,0.00,,---,0.00,VWS V14.01,2013-05-27 16:24:00,
2013-05-27 12:29:00,76.8,55.1,30.25,SSE,160,4.0,9.0,47,0.00,,---,0.00,VWS V14.01,2013-05-27 16:29:00,
2013-05-27 12:34:00,76.8,54.5,30.25,WSW,248,3.0,6.0,46,0.00,,---,0.00,VWS V14.01,2013-05-27 16:34:00,
2013-05-27 12:39:00,76.8,53.3,30.25,SSE,166,5.0,10.0,44,0.00,,---,0.00,VWS V14.01,2013-05-27 16:39:00,
2013-05-27 12:44:00,76.9,53.3,30.25,SW,214,5.0,9.0,44,0.00,,---,0.00,VWS V14.01,2013-05-27 16:44:00,
2013-05-27 12:49:00,76.8,54.5,30.25,ESE,115,2.0,8.0,46,0.00,,---,0.00,VWS V14.01,2013-05-27 16:49:00,
2013-05-27 12:54:00,77.0,54.1,30.25,WSW,238,4.0,9.0,45,0.00,,---,0.00,VWS V14.01,2013-05-27 16:54:00,
2013-05-27 12:59:00,77.0,55.2,30.25,SSE,155,2.0,10.0,47,0.00,,---,0.00,VWS V14.01,2013-05-27 16:59:00,
2013-05-27 13:04:00,77.2,55.4,30.24,SE,124,4.0,8.0,47,0.00,,---,0.00,VWS V14.01,2013-05-27 17:04:00,
2013-05-27 13:09:00,77.3,53.1,30.25,SSE,168,5.0,6.0,43,0.00,,---,0.00,VWS V14.01,2013-05-27 17:09:00,
2013-05-27 13:14:00,77.6,54.0,30.25,SE,133,1.0,5.0,44,0.00,,---,0.00,VWS V14.01,2013-05-27 17:14:00,
2013-05-27 13:19:00,78.2,53.2,30.24,SSW,198,5.0,9.0,42,0.00,,---,0.00,VWS V14.01,2013-05-27 17:19:00,
2013-05-27 13:24:00,78.1,52.5,30.24,South,181,3.0,10.0,41,0.00,,---,0.00,VWS V14.01,2013-05-27 17:24:00,
2013-05-27 13:29:00,77.9,53.0,30.24,SSW,198,4.0,9.0,42,0.00,,---,0.00,VWS V14.01,2013-05-27 17:29:00,
2013-05-27 13:34:00,78.4,54.1,30.24,SSW,211,3.0,5.0,43,0.00,,---,0.00,VWS V14.01,2013-05-27 17:34:00,
2013-05-27 13:39:00,78.9,53.9,30.24,SE,145,2.0,5.0,42,0.00,,---,0.00,VWS V14.01,2013-05-27 17:39:00,
2013-05-27 13:44:00,78.4,54.1,30.24,South,186,2.0,6.0,43,0.00,,---,0.00,VWS V14.01,2013-05-27 17:44:00,
2013-05-27 13:49:00,79.0,53.3,30.23,SSW,203,3.0,7.0,41,0.00,,---,0.00,VWS V14.01,2013-05-27 17:49:00,
2013-05-27 13:54:00,78.9,51.9,30.24,SSW,203,3.0,6.0,39,0.00,,---,0.00,VWS V14.01,2013-05-27 17:54:00,
2013-05-27 13:59:00,79.0,54.0,30.23,West,276,6.0,8.0,42,0.00,,---,0.00,VWS V14.01,2013-05-27 17:59:00,
2013-05-27 14:04:00,78.9,53.2,30.23,WSW,255,4.0,10.0,41,0.00,,---,0.00,VWS V14.01,2013-05-27 18:04:00,
2013-05-27 14:09:00,79.0,52.6,30.23,SE,145,7.0,7.0,40,0.00,,---,0.00,VWS V14.01,2013-05-27 18:09:00,
2013-05-27 14:14:00,79.1,54.1,30.23,WSW,249,3.0,9.0,42,0.00,,---,0.00,VWS V14.01,2013-05-27 18:14:00,
2013-05-27 14:19:00,79.0,52.6,30.23,SSW,193,1.0,9.0,40,0.00,,---,0.00,VWS V14.01,2013-05-27 18:19:00,
2013-05-27 14:25:00,79.7,55.9,30.23,SSW,205,0.0,4.0,44,0.00,,---,0.00,VWS V14.01,2013-05-27 18:25:00,
2013-05-27 14:30:00,79.9,53.5,30.23,WSW,242,5.0,7.0,40,0.00,,---,0.00,VWS V14.01,2013-05-27 18:30:00,
2013-05-27 14:35:00,79.5,53.8,30.22,SSE,159,0.0,5.0,41,0.00,,---,0.00,VWS V14.01,2013-05-27 18:35:00,
2013-05-27 14:40:00,79.7,53.3,30.22,WNW,294,1.0,3.0,40,0.00,,---,0.00,VWS V14.01,2013-05-27 18:40:00,
2013-05-27 14:45:00,80.5,54.0,30.22,SSW,198,2.0,4.0,40,0.00,,---,0.00,VWS V14.01,2013-05-27 18:45:00,
2013-05-27 14:50:00,80.5,55.3,30.22,SSW,208,6.0,8.0,42,0.00,,---,0.00,VWS V14.01,2013-05-27 18:50:00,
2013-05-27 14:55:00,80.2,54.4,30.22,South,179,4.0,5.0,41,0.00,,---,0.00,VWS V14.01,2013-05-27 18:55:00,
2013-05-27 15:00:00,80.1,55.0,30.21,SSE,149,3.0,6.0,42,0.00,,---,0.00,VWS V14.01,2013-05-27 19:00:00,
2013-05-27 15:05:00,80.2,55.0,30.21,SW,227,3.0,10.0,42,0.00,,---,0.00,VWS V14.01,2013-05-27 19:05:00,
2013-05-27 15:10:00,80.0,54.2,30.21,ENE,67,1.0,4.0,41,0.00,,---,0.00,VWS V14.01,2013-05-27 19:10:00,
2013-05-27 15:15:00,80.2,53.7,30.21,SE,135,3.0,5.0,40,0.00,,---,0.00,VWS V14.01,2013-05-27 19:15:00,
2013-05-27 15:20:00,80.3,53.8,30.21,NE,37,0.0,3.0,40,0.00,,---,0.00,VWS V14.01,2013-05-27 19:20:00,
2013-05-27 15:25:00,80.6,55.4,30.20,WSW,239,3.0,5.0,42,0.00,,---,0.00,VWS V14.01,2013-05-27 19:25:00,
2013-05-27 15:30:00,80.6,56.7,30.20,SSW,211,1.0,7.0,44,0.00,,---,0.00,VWS V14.01,2013-05-27 19:30:00,
2013-05-27 15:35:00,80.8,56.2,30.20,WNW,299,2.0,5.0,43,0.00,,---,0.00,VWS V14.01,2013-05-27 19:35:00,
2013-05-27 15:40:00,81.1,56.5,30.20,NW,305,0.0,1.0,43,0.00,,---,0.00,VWS V14.01,2013-05-27 19:40:00,
2013-05-27 15:45:00,81.2,55.3,30.19,SE,129,4.0,7.0,41,0.00,,---,0.00,VWS V14.01,2013-05-27 19:45:00,
2013-05-27 15:50:00,81.0,56.4,30.19,SW,215,4.0,10.0,43,0.00,,---,0.00,VWS V14.01,2013-05-27 19:50:00,
2013-05-27 15:55:00,81.0,56.4,30.19,SSW,211,4.0,7.0,43,0.00,,---,0.00,VWS V14.01,2013-05-27 19:55:00,
2013-05-27 16:00:00,81.2,56.0,30.18,SSE,168,7.0,7.0,42,0.00,,---,0.00,VWS V14.01,2013-05-27 20:00:00,
2013-05-27 16:05:00,81.1,56.5,30.18,ESE,121,6.0,7.0,43,0.00,,---,0.00,VWS V14.01,2013-05-27 20:05:00,
2013-05-27 16:10:00,81.1,57.2,30.18,SW,217,1.0,8.0,44,0.00,,---,0.00,VWS V14.01,2013-05-27 20:10:00,
2013-05-27 16:15:00,81.2,57.2,30.18,SE,141,2.0,6.0,44,0.00,,---,0.00,VWS V14.01,2013-05-27 20:15:00,
2013-05-27 16:20:00,81.3,58.0,30.17,SSW,207,5.0,8.0,45,0.00,,---,0.00,VWS V14.01,2013-05-27 20:20:00,
2013-05-27 16:25:00,80.9,57.0,30.18,SSW,198,4.0,10.0,44,0.00,,---,0.00,VWS V14.01,2013-05-27 20:25:00,
2013-05-27 16:30:00,80.7,56.8,30.17,ENE,63,3.0,7.0,44,0.00,,---,0.00,VWS V14.01,2013-05-27 20:30:00,
2013-05-27 16:35:00,81.0,57.1,30.17,ESE,121,5.0,7.0,44,0.00,,---,0.00,VWS V14.01,2013-05-27 20:35:00,
2013-05-27 16:40:00,80.9,58.2,30.17,SE,141,2.0,11.0,46,0.00,,---,0.00,VWS V14.01,2013-05-27 20:40:00,
2013-05-27 16:45:00,81.0,57.7,30.17,South,170,6.0,8.0,45,0.00,,---,0.00,VWS V14.01,2013-05-27 20:45:00,
2013-05-27 16:50:00,81.0,57.7,30.17,ESE,111,6.0,8.0,45,0.00,,---,0.00,VWS V14.01,2013-05-27 20:50:00,
2013-05-27 16:55:00,81.1,57.8,30.17,SW,232,2.0,9.0,45,0.00,,---,0.00,VWS V14.01,2013-05-27 20:55:00,
2013-05-27 17:00:00,81.1,57.8,30.17,South,172,6.0,10.0,45,0.00,,---,0.00,VWS V14.01,2013-05-27 21:00:00,
2013-05-27 17:05:00,81.0,57.1,30.17,SE,141,4.0,7.0,44,0.00,,---,0.00,VWS V14.01,2013-05-27 21:05:00,
2013-05-27 17:10:00,81.1,57.8,30.17,South,169,1.0,9.0,45,0.00,,---,0.00,VWS V14.01,2013-05-27 21:10:00,
2013-05-27 17:15:00,81.2,57.9,30.17,SW,217,2.0,7.0,45,0.00,,---,0.00,VWS V14.01,2013-05-27 21:15:00,
2013-05-27 17:20:00,81.4,57.4,30.16,ESE,117,9.0,10.0,44,0.00,,---,0.00,VWS V14.01,2013-05-27 21:20:00,
2013-05-27 17:25:00,81.4,58.7,30.16,South,173,7.0,9.0,46,0.00,,---,0.00,VWS V14.01,2013-05-27 21:25:00,
2013-05-27 17:30:00,81.4,58.0,30.16,SE,137,5.0,10.0,45,0.00,,---,0.00,VWS V14.01,2013-05-27 21:30:00,
2013-05-27 17:35:00,81.5,58.8,30.17,SE,137,3.0,6.0,46,0.00,,---,0.00,VWS V14.01,2013-05-27 21:35:00,
2013-05-27 17:40:00,81.5,58.8,30.16,SE,141,10.0,11.0,46,0.00,,---,0.00,VWS V14.01,2013-05-27 21:40:00,
2013-05-27 17:45:00,81.4,58.0,30.16,SW,219,1.0,8.0,45,0.00,,---,0.00,VWS V14.01,2013-05-27 21:45:00,
2013-05-27 17:50:00,81.5,58.1,30.17,SSE,155,2.0,5.0,45,0.00,,---,0.00,VWS V14.01,2013-05-27 21:50:00,
2013-05-27 17:55:00,81.7,58.9,30.16,ESE,106,5.0,6.0,46,0.00,,---,0.00,VWS V14.01,2013-05-27 21:55:00,
2013-05-27 18:00:00,81.8,59.0,30.16,South,176,1.0,5.0,46,0.00,,---,0.00,VWS V14.01,2013-05-27 22:00:00,
2013-05-27 18:05:00,81.8,59.0,30.16,SSW,198,1.0,6.0,46,0.00,,---,0.00,VWS V14.01,2013-05-27 22:05:00,
2013-05-27 18:10:00,81.7,59.5,30.16,SE,145,6.0,6.0,47,0.00,,---,0.00,VWS V14.01,2013-05-27 22:10:00,
2013-05-27 18:16:00,81.2,59.1,30.16,SSE,152,4.0,7.0,47,0.00,,---,0.00,VWS V14.01,2013-05-27 22:16:00,
2013-05-27 18:21:00,81.0,60.1,30.16,SSE,167,3.0,5.0,49,0.00,,---,0.00,VWS V14.01,2013-05-27 22:21:00,
2013-05-27 18:26:00,80.6,58.5,30.16,SSE,167,5.0,6.0,47,0.00,,---,0.00,VWS V14.01,2013-05-27 22:26:00,
2013-05-27 18:31:00,80.4,59.5,30.16,SW,219,3.0,5.0,49,0.00,,---,0.00,VWS V14.01,2013-05-27 22:31:00,
2013-05-27 18:36:00,80.3,59.4,30.17,SE,132,5.0,7.0,49,0.00,,---,0.00,VWS V14.01,2013-05-27 22:36:00,
2013-05-27 18:41:00,80.1,59.2,30.17,SSE,162,2.0,6.0,49,0.00,,---,0.00,VWS V14.01,2013-05-27 22:41:00,
2013-05-27 18:46:00,80.0,59.7,30.17,SSE,163,2.0,6.0,50,0.00,,---,0.00,VWS V14.01,2013-05-27 22:46:00,
2013-05-27 18:51:00,79.9,59.6,30.17,SSE,154,4.0,6.0,50,0.00,,---,0.00,VWS V14.01,2013-05-27 22:51:00,
2013-05-27 18:56:00,79.8,59.5,30.17,South,173,3.0,6.0,50,0.00,,---,0.00,VWS V14.01,2013-05-27 22:56:00,
2013-05-27 19:01:00,79.4,59.7,30.17,SSE,167,2.0,5.0,51,0.00,,---,0.00,VWS V14.01,2013-05-27 23:01:00,
2013-05-27 19:06:00,79.2,59.0,30.17,SSE,150,2.0,5.0,50,0.00,,---,0.00,VWS V14.01,2013-05-27 23:06:00,
2013-05-27 19:11:00,79.1,59.4,30.17,SE,140,3.0,4.0,51,0.00,,---,0.00,VWS V14.01,2013-05-27 23:11:00,
2013-05-27 19:16:00,79.1,59.4,30.17,SE,127,3.0,4.0,51,0.00,,---,0.00,VWS V14.01,2013-05-27 23:16:00,
2013-05-27 19:21:00,79.1,59.4,30.17,SSE,159,3.0,4.0,51,0.00,,---,0.00,VWS V14.01,2013-05-27 23:21:00,
2013-05-27 19:26:00,79.1,60.0,30.17,SE,143,2.0,4.0,52,0.00,,---,0.00,VWS V14.01,2013-05-27 23:26:00,
2013-05-27 19:31:00,79.0,59.9,30.17,ESE,114,4.0,4.0,52,0.00,,---,0.00,VWS V14.01,2013-05-27 23:31:00,
2013-05-27 19:36:00,78.8,59.7,30.17,SE,141,4.0,5.0,52,0.00,,---,0.00,VWS V14.01,2013-05-27 23:36:00,
2013-05-27 19:41:00,78.6,60.1,30.17,SE,146,4.0,5.0,53,0.00,,---,0.00,VWS V14.01,2013-05-27 23:41:00,
2013-05-27 19:46:00,78.3,59.8,30.17,SSE,147,3.0,6.0,53,0.00,,---,0.00,VWS V14.01,2013-05-27 23:46:00,
2013-05-27 19:51:00,78.0,59.5,30.17,SE,134,4.0,6.0,53,0.00,,---,0.00,VWS V14.01,2013-05-27 23:51:00,
2013-05-27 19:56:00,77.7,59.8,30.16,SE,138,5.0,6.0,54,0.00,,---,0.00,VWS V14.01,2013-05-27 23:56:00,
2013-05-27 20:01:00,77.4,59.5,30.16,SE,142,4.0,6.0,54,0.00,,---,0.00,VWS V14.01,2013-05-28 00:01:00,
2013-05-27 20:06:00,77.1,59.7,30.16,SE,138,3.0,5.0,55,0.00,,---,0.00,VWS V14.01,2013-05-28 00:06:00,
2013-05-27 20:11:00,76.8,58.9,30.16,SE,132,3.0,6.0,54,0.00,,---,0.00,VWS V14.01,2013-05-28 00:11:00,
2013-05-27 20:16:00,76.7,59.8,30.16,SE,141,3.0,4.0,56,0.00,,---,0.00,VWS V14.01,2013-05-28 00:16:00,
2013-05-27 20:21:00,76.3,60.5,30.16,SE,129,3.0,4.0,58,0.00,,---,0.00,VWS V14.01,2013-05-28 00:21:00,
2013-05-27 20:26:00,76.0,60.2,30.16,SE,124,1.0,4.0,58,0.00,,---,0.00,VWS V14.01,2013-05-28 00:26:00,
2013-05-27 20:31:00,75.7,59.9,30.17,SE,129,1.0,3.0,58,0.00,,---,0.00,VWS V14.01,2013-05-28 00:31:00,
2013-05-27 20:36:00,75.4,60.1,30.17,ESE,105,2.0,3.0,59,0.00,,---,0.00,VWS V14.01,2013-05-28 00:36:00,
2013-05-27 20:41:00,75.3,59.5,30.17,ESE,121,3.0,4.0,58,0.00,,---,0.00,VWS V14.01,2013-05-28 00:41:00,
2013-05-27 20:46:00,75.3,59.5,30.17,ESE,103,3.0,3.0,58,0.00,,---,0.00,VWS V14.01,2013-05-28 00:46:00,
2013-05-27 20:51:00,75.2,59.9,30.17,East,88,2.0,4.0,59,0.00,,---,0.00,VWS V14.01,2013-05-28 00:51:00,
2013-05-27 20:56:00,75.1,59.8,30.17,ESE,117,3.0,4.0,59,0.00,,---,0.00,VWS V14.01,2013-05-28 00:56:00,
2013-05-27 21:01:00,75.0,59.7,30.17,East,99,4.0,5.0,59,0.00,,---,0.00,VWS V14.01,2013-05-28 01:01:00,
2013-05-27 21:06:00,75.0,59.7,30.17,ESE,122,4.0,5.0,59,0.00,,---,0.00,VWS V14.01,2013-05-28 01:06:00,
2013-05-27 21:11:00,74.9,59.6,30.17,SE,127,5.0,6.0,59,0.00,,---,0.00,VWS V14.01,2013-05-28 01:11:00,
2013-05-27 21:16:00,74.8,59.5,30.17,SE,132,4.0,5.0,59,0.00,,---,0.00,VWS V14.01,2013-05-28 01:16:00,
2013-05-27 21:21:00,74.6,59.8,30.17,SE,129,4.0,5.0,60,0.00,,---,0.00,VWS V14.01,2013-05-28 01:21:00,
2013-05-27 21:26:00,74.4,59.6,30.17,SE,129,4.0,5.0,60,0.00,,---,0.00,VWS V14.01,2013-05-28 01:26:00,
2013-05-27 21:31:00,74.2,59.4,30.17,SE,126,4.0,5.0,60,0.00,,---,0.00,VWS V14.01,2013-05-28 01:31:00,
2013-05-27 21:36:00,74.0,59.7,30.17,ESE,120,4.0,4.0,61,0.00,,---,0.00,VWS V14.01,2013-05-28 01:36:00,
2013-05-27 21:41:00,73.8,59.5,30.17,SE,136,4.0,4.0,61,0.00,,---,0.00,VWS V14.01,2013-05-28 01:41:00,
2013-05-27 21:46:00,73.7,59.9,30.17,ESE,121,4.0,6.0,62,0.00,,---,0.00,VWS V14.01,2013-05-28 01:46:00,
2013-05-27 21:51:00,73.4,60.0,30.17,SE,134,3.0,5.0,63,0.00,,---,0.00,VWS V14.01,2013-05-28 01:51:00,
2013-05-27 21:56:00,73.0,60.1,30.17,SE,143,4.0,5.0,64,0.00,,---,0.00,VWS V14.01,2013-05-28 01:56:00,
2013-05-27 22:01:00,72.9,60.0,30.17,SE,142,4.0,6.0,64,0.00,,---,0.00,VWS V14.01,2013-05-28 02:01:00,
2013-05-27 22:06:00,72.7,60.3,30.17,SE,140,4.0,7.0,65,0.00,,---,0.00,VWS V14.01,2013-05-28 02:06:00,
2013-05-27 22:11:00,72.2,60.2,30.17,SE,136,3.0,6.0,66,0.00,,---,0.00,VWS V14.01,2013-05-28 02:11:00,
2013-05-27 22:16:00,71.8,60.3,30.18,SE,124,5.0,7.0,67,0.00,,---,0.00,VWS V14.01,2013-05-28 02:16:00,
2013-05-27 22:21:00,71.4,60.3,30.17,SSE,148,3.0,6.0,68,0.00,,---,0.00,VWS V14.01,2013-05-28 02:21:00,
2013-05-27 22:26:00,71.1,60.4,30.17,SE,129,4.0,7.0,69,0.00,,---,0.00,VWS V14.01,2013-05-28 02:26:00,
2013-05-27 22:31:00,70.8,60.5,30.17,SE,143,3.0,6.0,70,0.00,,---,0.00,VWS V14.01,2013-05-28 02:31:00,
2013-05-27 22:36:00,70.7,60.5,30.17,SE,139,4.0,7.0,70,0.00,,---,0.00,VWS V14.01,2013-05-28 02:36:00,
2013-05-27 22:41:00,70.5,60.3,30.17,SE,129,5.0,5.0,70,0.00,,---,0.00,VWS V14.01,2013-05-28 02:41:00,
2013-05-27 22:46:00,70.3,60.5,30.18,SE,137,4.0,7.0,71,0.00,,---,0.00,VWS V14.01,2013-05-28 02:46:00,
2013-05-27 22:51:00,70.1,60.3,30.18,SE,133,5.0,7.0,71,0.00,,---,0.00,VWS V14.01,2013-05-28 02:51:00,
2013-05-27 22:56:00,70.1,60.7,30.18,SSE,158,5.0,7.0,72,0.00,,---,0.00,VWS V14.01,2013-05-28 02:56:00,
2013-05-27 23:01:00,70.1,60.3,30.18,SE,133,6.0,9.0,71,0.00,,---,0.00,VWS V14.01,2013-05-28 03:01:00,
2013-05-27 23:06:00,70.0,60.2,30.18,SE,136,5.0,9.0,71,0.00,,---,0.00,VWS V14.01,2013-05-28 03:06:00,
2013-05-27 23:11:00,69.9,60.5,30.19,SE,143,3.0,9.0,72,0.00,,---,0.00,VWS V14.01,2013-05-28 03:11:00,
2013-05-27 23:16:00,69.7,60.7,30.19,SE,129,4.0,9.0,73,0.00,,---,0.00,VWS V14.01,2013-05-28 03:16:00,
2013-05-27 23:21:00,69.6,60.6,30.19,SE,132,5.0,7.0,73,0.00,,---,0.00,VWS V14.01,2013-05-28 03:21:00,
2013-05-27 23:26:00,69.4,60.8,30.19,SE,129,4.0,8.0,74,0.00,,---,0.00,VWS V14.01,2013-05-28 03:26:00,
2013-05-27 23:31:00,69.3,60.7,30.19,ESE,108,3.0,6.0,74,0.00,,---,0.00,VWS V14.01,2013-05-28 03:31:00,
2013-05-27 23:36:00,69.2,61.0,30.19,SE,139,6.0,6.0,75,0.00,,---,0.00,VWS V14.01,2013-05-28 03:36:00,
2013-05-27 23:41:00,69.1,60.8,30.19,SE,132,4.0,7.0,75,0.00,,---,0.00,VWS V14.01,2013-05-28 03:41:00,
2013-05-27 23:46:00,69.0,61.1,30.20,ESE,121,5.0,6.0,76,0.00,,---,0.00,VWS V14.01,2013-05-28 03:46:00,
2013-05-27 23:51:00,69.0,61.5,30.20,ESE,118,3.0,6.0,77,0.00,,---,0.00,VWS V14.01,2013-05-28 03:51:00,
2013-05-27 23:56:00,68.9,61.4,30.20,SSE,160,5.0,6.0,77,0.00,,---,0.00,VWS V14.01,2013-05-28 03:56:00,